SCATSAT 1

Satellite information

Favourite Embed

Satellite Type and Status

PAYLOADIN ORBIT

Key statistics

Satellite SCATSAT 1 at a glance.

Uptime

3324

Days in orbit

Revolutions

≈ 14.8

Per day

Orbit

SSO

Sun Synchronous Orbit

Inclination

98.2

Latest

Satellite identification and parameters

Extended collection of information and parameters for SCATSAT 1.

Object identification

Identified? True

Debris? False

Object name: SCATSAT 1

International designator: 2016-059H

Object number (NORAD): 41790

Object ID (CCSDS): 41790

Country: INDIA (IND)

Current information (Y/N): Y

RCS size: LARGE

Orbital parameters

Period: 97.382 minutes

Inclination: 98.1528 deg

SMA: 7011.518 km

Apoapsis: 671.33 km

Periapsis: 595.436 km

RAAN: 1.7351 deg

Eccentricy: 0.00541205

Argument of periapsis: 260.849 deg

Mean anomaly: 98.6595 deg

Mean motion: 14.78715659 rev/day

Mean motion (dot): 0.00001973 rev/day2

B* drag term: 0.00027011982 1/REarth

Two-line elements (TLE)

Creation date: Nov. 1, 2025, 7:40 p.m.

Reference frame: TEME

Reference center: EARTH

Epoch: Nov. 1, 2025, 2:03 p.m. UTC

TLE line 0: 0 SCATSAT 1

TLE line 1: 1 41790U 16059H 25305.58570947 .00001973 00000-0 27012-3 0 9997

TLE line 2: 2 41790 98.1528 1.7351 0054120 260.8490 98.6595 14.78715659 67945

Live tracking on map

Real-time ground track for satellite SCATSAT 1.

In-orbit conjunctions

There are no conjunctions computed for SCATSAT 1, at the moment. Check back to stay up to date, as we update our databases every day.

Go to all conjunctions

Associated space launch

ScatSat-1 is a microsatellite of 371 kg and a mission life of 5 years. It is tasked to provide weather forecasting, cyclone prediction, and tracking services to India. This launch will also carry 7 other satellites, the 117kg Alsat-2B, the 103kg Alsat-1B & the 7kg Alsat-1N earth observation satellites for Algerian Space Agency, the 44kg Pathfinder-1 earth imager for Blacksky, the 8kg CanX-7 deorbiter for UTIAS Space Flight Laboratory, the 10kg Pratham Ionospheric Tomographer for IIT Bombay and the 5.25kg PiSat earth imager for PES University.

SCATSAT 1 was lifted into orbit during the mission ‘PSLV | SCATSat-1’, on board a PSLV space rocket.

The launch took place on Sept. 26, 2016, 3:42 a.m. from Satish Dhawan Space Centre First Launch Pad.

For more information about the launch, click the button.

Launch to space PSLV | SCATSat-1
PSLV | SCATSat-1

Agency: N/A

Status: Launch Successful

Launch date: Sept. 26, 2016, 3:42 a.m. UTC

Rocket: PSLV

Launch pad: Satish Dhawan Space Centre First Launch Pad

Location: Satish Dhawan Space Centre, India

...

Latest news about this satellite

There are no fresh news available about this satellite. Check back as we update our databases every day.


Newsletter sign-up

Weekly statistics, charts and insights to help you stay on top of the space industry.